Weather History for Erzurum, Turkey

Change the Weather History Date:

Saturday, August 2, 2014

  Actual Average Record
Temperature  
Mean Temperature 70 °F -  
Max Temperature 89 °F 79 °F 93 °F (2001)
Min Temperature 50 °F 52 °F 44 °F (1997)
Cooling Degree Days 4    
Growing Degree Days 20 (Base 50)    
Moisture  
Dew Point 40 °F    
Average Humidity 33    
Maximum Humidity 58    
Minimum Humidity 7    
Precipitation  
Precipitation 0.00 in 0.02 in - ()
Sea Level Pressure  
Sea Level Pressure 29.98 in    
Wind  
Wind Speed 4 mph ()    
Max Wind Speed 13 mph    
Max Gust Speed -    
Visibility 7.7 miles    
Events      
Averages and records for this station are not official NWS values.
T = Trace of Precipitation, MM = Missing Value Source: Averaged Metar Reports

Daily Weather History Graph

Daily Weather History Graph

Search for Another Location

Airport:

Trip Planner

Search our weather history database for the weather conditions in past years. The results will help you decide how hot, cold, wet, or windy it might be!

Date:

Astronomy

Aug. 02, 2014 Rise Set
Actual Time 5:14 AM EEST 7:28 PM EEST
Civil Twilight 4:44 AM EEST 7:58 PM EEST
Nautical Twilight 4:06 AM EEST 8:35 PM EEST
Astronomical Twilight 3:26 AM EEST 9:15 PM EEST
Moon 11:14 AM EEST (8/2) 10:34 PM EEST (8/2)
Length of Visible Light 15h 14m
Length of Day
14h 13m
Waxing Crescent, 34% of the Moon is Illuminated
Aug 2
Waxing Crescent
Aug 4
First Quarter
Aug 10
Full
Aug 17
Last Quarter
Aug 25
New

Hourly Weather History & Observations

Time (EEST) Temp. Dew Point Humidity Pressure Visibility Wind Dir Wind Speed Gust Speed Precip Events Conditions
12:00 AM 60 °F 36 °F 29%  in 12 mi Calm Calm - -  
12:20 AM 60.8 °F 37.4 °F 42% 30.01 in - Variable 1.2 mph - N/A   Clear
12:50 AM 59.0 °F 35.6 °F 42% 30.01 in - Variable 2.3 mph - N/A   Clear
1:20 AM 59.0 °F 35.6 °F 42% 30.01 in - SW 5.8 mph - N/A   Clear
1:50 AM 59.0 °F 35.6 °F 42% 30.01 in - Variable 2.3 mph - N/A   Clear
2:20 AM 57.2 °F 35.6 °F 44% 30.01 in - Variable 1.2 mph - N/A   Clear
2:50 AM 55.4 °F 37.4 °F 51% 30.01 in - Variable 1.2 mph - N/A   Clear
3:00 AM 56 °F 36 °F 36%  in 12 mi WSW 1.2 mph - -  
3:20 AM 55.4 °F 37.4 °F 51% 30.01 in - West 3.5 mph - N/A   Clear
3:50 AM 53.6 °F 37.4 °F 54% 30.04 in - WSW 3.5 mph - N/A   Clear
4:20 AM 53.6 °F 37.4 °F 54% 30.04 in - Calm Calm - N/A   Clear
4:50 AM 51.8 °F 37.4 °F 58% 30.04 in - Variable 2.3 mph - N/A   Clear
5:20 AM 53.6 °F 37.4 °F 54% 30.04 in - Variable 1.2 mph - N/A   Clear
5:50 AM 53.6 °F 37.4 °F 54% 30.04 in - Variable 1.2 mph - N/A   Clear
6:00 AM 53 °F 37 °F 43%  in 12 mi WSW 1.2 mph - -  
6:20 AM 55.4 °F 39.2 °F 54% 30.04 in - West 3.5 mph - N/A   Clear
6:50 AM 59.0 °F 41.0 °F 51% 30.04 in - West 2.3 mph - N/A   Clear
7:20 AM 64.4 °F 42.8 °F 45% 30.04 in - Variable 2.3 mph - N/A   Clear
7:50 AM 68.0 °F 44.6 °F 43% 30.04 in - Calm Calm - N/A   Clear
8:20 AM 73.4 °F 48.2 °F 41% 30.04 in - East 5.8 mph - N/A   Clear
8:50 AM 73.4 °F 48.2 °F 41% 30.04 in - East 12.7 mph - N/A   Clear
9:00 AM 73 °F 48 °F 30%  in 12 mi East 12.7 mph - -  
9:20 AM 73.4 °F 48.2 °F 41% 30.04 in - ENE 11.5 mph - N/A   Clear
9:50 AM 77.0 °F 46.4 °F 34% 30.01 in - East 10.4 mph - N/A   Clear
10:20 AM 77.0 °F 48.2 °F 36% 30.01 in 6.2 mi East 10.4 mph - N/A   Partly Cloudy
10:50 AM 78.8 °F 46.4 °F 32% 30.01 in 6.2 mi East 8.1 mph - N/A   Partly Cloudy
11:20 AM 80.6 °F 46.4 °F 30% 30.01 in 6.2 mi East 6.9 mph - N/A   Partly Cloudy
11:50 AM 82.4 °F 42.8 °F 25% 29.98 in 6.2 mi ENE 9.2 mph - N/A   Partly Cloudy
12:00 PM 83 °F 43 °F 15%  in 12 mi ENE 9.2 mph - -   Scattered Clouds
12:20 PM 86.0 °F 35.6 °F 17% 29.98 in 6.2 mi Variable 4.6 mph - N/A   Partly Cloudy
12:50 PM 86.0 °F 37.4 °F 18% 29.98 in 6.2 mi Variable 4.6 mph - N/A   Partly Cloudy
1:20 PM 86.0 °F 39.2 °F 19% 29.95 in 6.2 mi SE 6.9 mph - N/A   Partly Cloudy
1:50 PM 87.8 °F 39.2 °F 18% 29.95 in 6.2 mi Variable 4.6 mph - N/A   Partly Cloudy
2:20 PM 86.0 °F 39.2 °F 19% 29.95 in 6.2 mi NE 8.1 mph - N/A   Partly Cloudy
2:50 PM 87.8 °F 37.4 °F 17% 29.95 in 6.2 mi Variable 3.5 mph - N/A   Partly Cloudy
3:00 PM 88 °F 35 °F 8%  in 12 mi East 3.5 mph - -   Scattered Clouds
3:20 PM 87.8 °F 35.6 °F 16% 29.92 in 6.2 mi NW 10.4 mph - N/A   Partly Cloudy
3:50 PM 89.6 °F 33.8 °F 14% 29.92 in 6.2 mi Variable 4.6 mph - N/A   Partly Cloudy
4:20 PM 89.6 °F 33.8 °F 14% 29.92 in 6.2 mi WNW 4.6 mph - N/A   Partly Cloudy
4:50 PM 87.8 °F 33.8 °F 15% 29.92 in 6.2 mi NW 8.1 mph - N/A   Partly Cloudy
5:20 PM 86.0 °F 35.6 °F 17% 29.92 in 6.2 mi North 3.5 mph - N/A   Partly Cloudy
5:50 PM 87.8 °F 33.8 °F 15% 29.92 in 6.2 mi Variable 2.3 mph - N/A   Partly Cloudy
6:00 PM 89 °F 33 °F 7%  in 12 mi NNW 2.3 mph - -   Scattered Clouds
6:20 PM 87.8 °F 35.6 °F 16% 29.92 in 6.2 mi Calm Calm - N/A   Partly Cloudy
6:50 PM 84.2 °F 39.2 °F 20% 29.92 in 6.2 mi NNE 2.3 mph - N/A   Partly Cloudy
7:20 PM 80.6 °F 41.0 °F 24% 29.92 in 6.2 mi Calm Calm - N/A   Partly Cloudy
7:50 PM 77.0 °F 42.8 °F 29% 29.92 in 6.2 mi ESE 2.3 mph - N/A   Partly Cloudy
8:20 PM 73.4 °F 44.6 °F 36% 29.92 in 6.2 mi West 5.8 mph - N/A   Partly Cloudy
8:50 PM 71.6 °F 44.6 °F 38% 29.95 in 6.2 mi WSW 3.5 mph - N/A   Partly Cloudy
9:00 PM 71 °F 44 °F 27%  in 12 mi WSW 3.5 mph - -   Scattered Clouds
9:20 PM 71.6 °F 41.0 °F 33% 29.95 in 6.2 mi SW 6.9 mph - N/A   Partly Cloudy
9:50 PM 71.6 °F 39.2 °F 31% 29.95 in - WSW 6.9 mph - N/A   Clear
10:20 PM 68.0 °F 41.0 °F 37% 29.95 in - SE 6.9 mph - N/A   Clear
10:50 PM 69.8 °F 42.8 °F 38% 29.95 in - ENE 4.6 mph - N/A   Clear
11:20 PM 69.8 °F 42.8 °F 38% 29.95 in - Variable 2.3 mph - N/A   Clear
11:50 PM 69.8 °F 44.6 °F 40% 29.98 in - East 6.9 mph - N/A   Clear